Location: Fort Wayne
(41.1310°N, 85.1290°W)
Time: 21:44:52
(UTC-04:00)

Iridium 37 - Visible Passes

Search period start: 27 September 2016 00:00
Search period end: 07 October 2016 00:00
Orbit: 776 x 779 km, 86.4° (Epoch: 26 September)

Date Brightness Start Highest point End Pass type
(mag) Time Alt. Az. Time Alt. Az. Time Alt. Az.
27 Sep 8.0 04:48:40 10° SE 04:52:24 20° E 04:56:08 10° NE visible
27 Sep 5.8 06:27:45 10° SSW 06:32:44 45° W 06:37:45 10° N visible
28 Sep 8.6 04:18:04 10° E 04:19:16 11° ENE 04:20:26 10° ENE visible
28 Sep 5.4 05:53:56 10° S 05:59:09 84° W 06:04:24 10° N visible
29 Sep 6.2 05:20:39 10° SSE 05:25:41 53° E 05:30:45 10° NNE visible
29 Sep 6.9 07:03:15 10° WSW 07:06:45 18° WNW 07:10:14 10° NNW visible
30 Sep 7.3 04:47:55 10° SE 04:52:21 29° E 04:56:46 10° NNE visible
30 Sep 6.2 06:28:20 10° SW 06:32:57 32° W 06:37:36 10° NNW visible
01 Oct 8.1 04:16:03 10° ESE 04:19:07 16° ENE 04:22:13 10° NE visible
01 Oct 5.5 05:55:45 20° SSW 05:59:17 58° W 06:04:27 10° N visible
02 Oct 5.6 05:23:32 35° S 05:25:45 77° E 05:30:59 10° N visible
02 Oct 7.3 07:05:01 10° W 07:07:06 12° WNW 07:09:11 10° NW visible
03 Oct 6.6 04:51:08 36° ESE 04:52:20 41° E 04:57:13 10° NNE visible
03 Oct 6.6 06:31:40 20° WSW 06:33:13 22° WNW 06:37:16 10° NNW visible
04 Oct 7.6 04:18:36 23° E 04:19:03 23° E 04:23:04 10° NNE visible
04 Oct 5.9 05:59:08 40° W 05:59:29 40° W 06:04:23 10° NNW visible
05 Oct 8.3 03:45:57 12° ENE 03:45:57 12° ENE 03:47:58 10° NE visible
05 Oct 5.5 05:26:28 66° NW 05:26:28 66° NW 05:31:06 10° N visible
06 Oct 6.4 04:53:45 44° NE 04:53:45 44° NE 04:57:31 10° N visible
06 Oct 7.1 06:34:16 15° WNW 06:34:16 15° WNW 06:36:39 10° NW visible
